Location: Cleveland
(41.4990°N, 81.6960°W)
Time: 09:52:47
(UTC-04:00)

Envisat - Visible Passes

Search period start: 01 October 2022 00:00
Search period end: 11 October 2022 00:00
Orbit: 764 x 765 km, 98.2° (Epoch: 01 October)

Date Brightness Start Highest point End Pass type
(mag) Time Alt. Az. Time Alt. Az. Time Alt. Az.
01 Oct 5.6 04:38:22 10° NE 04:41:43 17° E 04:45:02 10° SE visible
01 Oct 3.1 06:16:05 10° N 06:21:03 55° WNW 06:25:59 10° SSW visible
02 Oct 3.3 05:39:04 10° NNE 05:44:08 68° ESE 05:49:11 10° S visible
03 Oct 4.8 05:02:35 10° NE 05:07:02 30° E 05:11:27 10° SSE visible
03 Oct 3.7 06:41:31 10° N 06:46:00 32° WNW 06:50:28 10° SW visible
04 Oct 5.8 04:27:17 10° ENE 04:29:44 13° E 04:32:09 10° ESE visible
04 Oct 2.9 06:04:09 10° N 06:09:14 71° WNW 06:14:16 10° SSW visible
05 Oct 3.7 05:27:17 10° NNE 05:32:16 52° E 05:37:11 10° S visible
06 Oct 5.2 04:51:02 10° NE 04:55:05 23° E 04:59:06 10° SSE visible
06 Oct 3.4 06:29:28 10° N 06:34:13 41° WNW 06:38:56 10° SW visible
07 Oct 2.9 05:52:16 10° NNE 05:57:23 90° W 06:02:28 10° SSW visible
08 Oct 4.2 05:15:34 10° NNE 05:20:20 40° E 05:25:06 10° SSE visible
08 Oct 4.0 06:55:03 10° NNW 06:59:06 25° WNW 07:03:10 10° WSW visible
09 Oct 5.5 04:39:38 10° NE 04:43:07 18° E 04:46:35 10° SE visible
09 Oct 3.1 06:17:29 10° N 06:22:24 52° WNW 06:27:19 10° SSW visible
10 Oct 3.2 05:40:26 10° NNE 05:45:31 71° ESE 05:50:34 10° S visible
